[ hide orbit diagram ]
For accurate long-term ephemerides, please instead use our Horizons system.This orbit viewer was implemented using two-body methods, and hence should not be used for determining accurate long-term trajectories (over several years or decades) or planetary encounter circumstances.
Orbital Elements at Epoch 2459000.5 (2020-May-31.0) TDB
Reference: JPL 14 (heliocentric ecliptic J2000)
Element | Value | Uncertainty (1-sigma) | Units |
e | .12282070126796 | 5.0778e-08 | |
a | 2.655763952414143 | 2.5605e-08 | au |
q | 2.329581161376469 | 1.4032e-07 | au |
i | 3.827350644686432 | 7.1092e-06 | deg |
node | 117.9320600528508 | 9.3919e-05 | deg |
peri | 291.0231051435423 | 0.00010197 | deg |
M | 236.7223679626216 | 4.4858e-05 | deg |
tp | 2459541.832893690323 (2021-Nov-23.33289369) | 0.00020262 | TDB |
period | 1580.820774278237 4.33 | 2.2861e-05 6.259e-08 | d yr |
n | .2277298007829932 | 3.2934e-09 | deg/d |
Q | 2.981946743451818 | 2.8749e-08 | au |
|
| | Orbit Determination Parameters
Additional Information
|
[ show covariance matrix ]
Physical Parameter Table
Parameter |
Symbol |
Value |
Units |
Sigma |
Reference |
Notes |
absolute magnitude |
H |
16.7 |
|
n/a |
MPO433528 |
|
|
233988 (1995 VO3) Discovered 1995-Nov-14 by Spacewatch at Kitt Peak |
Reference: 20100330/Numbers.arc | Last Updated: 2010-04-05 |
|
|